K0JSC-13 Weather Reports


Display with metric or nautical units.
time (UTC)temp
F
wind
direction
speed
MPH
gust
MPH
rain 1hr
in
rain 24hr
in
rain mn
in
humidity
%
barometer
mb
20260831210903 85 301 1.0 4.0 0.00 0.00 0.00 31 992.4
20260831210003 85 291 2.0 6.0 0.00 0.00 0.00 32 992.5
20260831205403 85 295 2.0 6.0 0.00 0.00 0.00 30 992.5
20260831204717 84 35 1.0 4.0 0.00 0.00 0.00 31 992.7
20260831203603 83 358 4.0 11.0 0.00 0.00 0.00 32 992.8
20260831202704 83 3 2.0 6.0 0.00 0.00 0.00 32 992.8
20260831202017 83 339 3.0 9.0 0.00 0.00 0.00 32 993.0
20260831200903 82 336 4.0 10.0 0.00 0.00 0.00 32 993.3
20260831200218 82 330 5.0 10.0 0.00 0.00 0.00 35 993.4
20260831195618 82 326 5.0 10.0 0.00 0.00 0.00 37 993.5
20260831194503 81 325 4.0 8.0 0.00 0.00 0.00 37 993.6
20260831193816 80 294 3.0 8.0 0.00 0.00 0.00 40 993.8
20260831192703 80 292 3.0 8.0 0.00 0.00 0.00 39 994.0
20260831191804 79 282 4.0 8.0 0.00 0.00 0.00 44 994.2
20260831190903 78 278 4.0 8.0 0.00 0.00 0.00 42 994.3
20260831190003 77 300 4.0 11.0 0.00 0.00 0.00 45 994.5
20260831185403 77 303 5.0 12.0 0.00 0.00 0.00 44 994.5
20260831184503 75 291 5.0 12.0 0.00 0.00 0.00 45 994.5
20260831183818 75 286 4.0 11.0 0.00 0.00 0.00 46 994.8
20260831182703 74 312 3.0 8.0 0.00 0.00 0.00 48 995.2
20260831182017 74 317 4.0 9.0 0.00 0.00 0.00 52 995.0
20260831180904 74 313 9.0 16.0 0.00 0.00 0.00 49 995.0
20260831180003 73 321 8.0 15.0 0.00 0.00 0.00 50 995.0
20260831175403 73 328 6.0 12.0 0.00 0.00 0.00 51 995.1
20260831174503 73 320 6.0 11.0 0.00 0.00 0.00 50 995.2
20260831173817 73 309 5.0 14.0 0.00 0.00 0.00 51 995.4
20260831172703 73 299 4.0 11.0 0.00 0.00 0.00 52 995.5
20260831171803 72 311 5.0 12.0 0.00 0.00 0.00 52 995.4
20260831170903 72 309 5.0 11.0 0.00 0.00 0.00 54 995.3
20260831170004 72 313 6.0 15.0 0.00 0.00 0.00 55 995.4
20260831165403 72 311 6.0 14.0 0.00 0.00 0.00 54 995.5
20260831164718 72 307 5.0 14.0 0.00 0.00 0.00 52 995.4
20260831163603 71 304 7.0 13.0 0.00 0.00 0.00 55 995.3
20260831162703 71 306 9.0 17.0 0.00 0.00 0.00 55 995.3
20260831161803 70 304 9.0 17.0 0.00 0.00 0.00 55 995.5
20260831161117 70 309 9.0 17.0 0.00 0.00 0.00 54 995.4
20260831160217 70 309 7.0 15.0 0.00 0.00 0.00 53 995.5
20260831155618 70 308 6.0 10.0 0.00 0.00 0.00 54 995.5
20260831154503 69 305 6.0 12.0 0.00 0.00 0.00 55 995.5
20260831153603 69 317 6.0 11.0 0.00 0.00 0.00 58 995.3
20260831152918 69 323 5.0 10.0 0.00 0.00 0.00 57 995.5
20260831151803 69 311 7.0 12.0 0.00 0.00 0.00 56 995.6
20260831151117 69 311 6.0 13.0 0.00 0.00 0.00 57 995.7
20260831150218 69 312 7.0 11.0 0.00 0.00 0.00 55 995.6
20260831145404 69 316 5.0 10.0 0.00 0.00 0.00 57 995.5
20260831144504 68 319 5.0 10.0 0.00 0.00 0.00 59 995.5
20260831143603 67 317 5.0 10.0 0.00 0.00 0.00 59 995.5
20260831142703 66 314 8.0 13.0 0.00 0.00 0.00 60 995.5
20260831142017 66 314 7.0 12.0 0.00 0.00 0.00 61 995.5
20260831140903 65 310 5.0 10.0 0.00 0.00 0.00 62 995.5
20260831140003 64 303 3.0 5.0 0.00 0.00 0.00 63 995.4
20260831135403 64 306 2.0 5.0 0.00 0.00 0.00 63 995.4
20260831134503 64 313 3.0 6.0 0.00 0.00 0.00 63 995.5
20260831133604 64 322 5.0 9.0 0.00 0.00 0.00 62 995.4
20260831132703 64 325 7.0 12.0 0.00 0.00 0.00 62 995.1
20260831132017 63 333 7.0 13.0 0.00 0.00 0.00 61 995.1
20260831131118 63 333 6.0 12.0 0.00 0.00 0.00 62 995.0
20260831130003 62 319 5.0 8.0 0.00 0.00 0.00 63 994.8
20260831125403 62 321 5.0 11.0 0.00 0.00 0.00 64 994.7
20260831124503 62 308 7.0 11.0 0.00 0.00 0.00 67 994.4
20260831123604 62 277 3.0 9.0 0.00 0.00 0.00 67 994.5
20260831122704 62 300 4.0 8.0 0.00 0.00 0.00 66 994.5
20260831121803 62 318 5.0 9.0 0.00 0.00 0.00 66 994.2
20260831120903 62 310 5.0 8.0 0.00 0.00 0.00 66 994.3
20260831120003 62 305 5.0 8.0 0.00 0.00 0.00 65 994.3
20260831115403 63 308 4.0 8.0 0.00 0.00 0.00 64 994.2
20260831114503 63 318 3.0 7.0 0.00 0.00 0.00 64 994.1
20260831113603 63 314 3.0 6.0 0.00 0.00 0.00 64 994.1
20260831112917 63 315 3.0 7.0 0.00 0.00 0.00 65 994.1
20260831111804 63 304 4.0 10.0 0.00 0.00 0.00 64 993.9
20260831110903 63 307 5.0 10.0 0.00 0.00 0.00 64 994.0
20260831110004 63 303 4.0 10.0 0.00 0.00 0.00 64 994.0
20260831105403 64 307 2.0 8.0 0.00 0.00 0.00 64 994.0
20260831104718 64 300 2.0 6.0 0.00 0.00 0.00 63 994.0
20260831103817 64 313 4.0 12.0 0.00 0.00 0.00 63 994.0
20260831102703 64 312 7.0 12.0 0.00 0.00 0.00 63 994.1
20260831101803 64 319 8.0 12.0 0.00 0.00 0.00 64 993.9
20260831100904 64 326 7.0 11.0 0.00 0.00 0.00 65 993.9
20260831100003 63 325 5.0 8.0 0.00 0.00 0.00 66 993.9
20260831095403 61 75 1.0 5.0 0.00 0.00 0.00 69 993.9
20260831094503 62 81 1.0 5.0 0.00 0.00 0.00 71 993.9
20260831093603 63 81 1.0 9.0 0.00 0.00 0.00 70 993.8
20260831092703 63 73 2.0 6.0 0.00 0.00 0.00 69 993.8
20260831091803 63 75 1.0 4.0 0.00 0.00 0.00 68 993.6
20260831091117 63 102 1.0 7.0 0.00 0.00 0.00 69 993.4
20260831090004 63 85 1.0 8.0 0.00 0.00 0.00 70 993.4
20260831085403 63 80 2.0 8.0 0.00 0.00 0.00 71 993.5
20260831084503 63 81 3.0 9.0 0.00 0.00 0.00 69 993.3
20260831083603 64 80 4.0 8.0 0.00 0.00 0.00 69 993.4
20260831082917 64 79 5.0 11.0 0.00 0.00 0.00 68 993.2
20260831082017 65 87 4.0 8.0 0.00 0.00 0.00 65 993.0
20260831081116 65 84 2.0 10.0 0.00 0.00 0.00 66 993.4
20260831080218 65 74 1.0 6.0 0.00 0.00 0.00 66 993.7
20260831075404 66 84 1.0 7.0 0.00 0.00 0.00 66 993.6
20260831074503 66 92 1.0 5.0 0.00 0.00 0.00 65 993.7
20260831073603 66 78 2.0 10.0 0.00 0.00 0.00 65 993.9
20260831072703 66 85 3.0 12.0 0.00 0.00 0.00 66 994.0
20260831071803 67 82 4.0 9.0 0.00 0.00 0.00 66 994.4
20260831070903 66 83 1.0 7.0 0.00 0.00 0.00 67 994.7
20260831070432 66 80 2.0 5.0 0.00 0.00 0.00 68 995.0
20260831065403 66 85 1.0 6.0 0.00 0.00 0.00 69 995.1
20260831064504 65 85 1.0 3.0 0.00 0.00 0.00 70 995.3
20260831063817 65 80 1.0 5.0 0.00 0.00 0.00 70 995.5
20260831062703 65 79 3.0 7.0 0.00 0.00 0.00 70 995.7
20260831061803 65 74 2.0 6.0 0.00 0.00 0.00 70 995.5
20260831061117 65 78 1.0 4.0 0.00 0.00 0.00 72 995.6
20260831060006 65 81 2.0 8.0 0.00 0.00 0.00 71 995.4
20260831055403 66 85 1.0 7.0 0.00 0.00 0.00 68 995.2
20260831054504 65 79 2.0 9.0 0.00 0.00 0.00 70 995.6
20260831053604 66 76 6.0 10.0 0.00 0.00 0.00 69 995.7
20260831052703 66 79 7.0 12.0 0.00 0.00 0.00 67 995.8
20260831051803 66 80 8.0 12.0 0.00 0.00 0.00 67 995.6
20260831050903 67 71 3.0 10.0 0.00 0.00 0.00 66 995.6
20260831050003 67 75 2.0 9.0 0.00 0.00 0.00 66 995.0
20260831045403 67 61 4.0 5.0 0.00 0.00 0.00 62 994.8
20260831044503 68 75 3.0 9.0 0.00 0.00 0.00 62 995.9
20260831043603 69 88 4.0 11.0 0.00 0.00 0.00 59 995.6
20260831042704 69 76 9.0 17.0 0.00 0.00 0.00 57 996.0
20260831041803 70 73 7.0 15.0 0.00 0.00 0.00 55 995.8
20260831040903 70 78 8.0 16.0 0.00 0.00 0.00 53 995.1
20260831040003 70 80 7.0 14.0 0.00 0.00 0.00 54 995.0
20260831035403 70 80 9.0 18.0 0.00 0.00 0.00 52 995.3
20260831034503 71 84 7.0 16.0 0.00 0.00 0.00 51 995.3
20260831033603 72 84 5.0 10.0 0.00 0.00 0.00 50 995.1
20260831032703 73 86 7.0 14.0 0.00 0.00 0.00 47 995.0
20260831031804 73 81 7.0 14.0 0.00 0.00 0.00 46 995.0
20260831030903 73 77 4.0 12.0 0.00 0.00 0.00 47 994.5
20260831030003 72 75 4.0 9.0 0.00 0.00 0.00 47 993.8
20260831025617 72 78 3.0 8.0 0.00 0.00 0.00 48 993.6
20260831024503 72 61 3.0 5.0 0.00 0.00 0.00 47 993.1
20260831023603 73 325 7.0 16.0 0.00 0.00 0.00 44 992.6
20260831022703 74 329 8.0 17.0 0.00 0.00 0.00 44 992.4
20260831022017 74 324 7.0 12.0 0.00 0.00 0.00 46 992.5
20260831020904 73 346 4.0 13.0 0.00 0.00 0.00 47 992.1
20260831020217 70 80 0.0 3.0 0.00 0.00 0.00 51 991.9
20260831015403 70 80 0.0 1.0 0.00 0.00 0.00 53 991.6
20260831014503 70 80 0.0 1.0 0.00 0.00 0.00 52 991.5
20260831013603 71 80 0.0 2.0 0.00 0.00 0.00 51 991.2
20260831012703 73 78 0.0 1.0 0.00 0.00 0.00 47 990.9
20260831012016 74 72 0.0 5.0 0.00 0.00 0.00 46 990.8
20260831010904 74 75 2.0 4.0 0.00 0.00 0.00 45 990.6
20260831010004 75 76 2.0 5.0 0.00 0.00 0.00 45 990.3
20260831005403 76 77 2.0 5.0 0.00 0.00 0.00 45 990.2
20260831004503 76 77 1.0 7.0 0.00 0.00 0.00 44 990.0
20260831003603 77 86 2.0 7.0 0.00 0.00 0.00 45 990.1
20260831002703 77 79 3.0 10.0 0.00 0.00 0.00 46 990.3
20260831001803 78 75 4.0 10.0 0.00 0.00 0.00 43 990.2
20260831000903 80 77 3.0 7.0 0.00 0.00 0.00 41 990.1
20260831000003 81 80 3.0 7.0 0.00 0.00 0.00 41 990.1
20260830235404 81 78 2.0 6.0 0.00 0.00 0.00 40 990.1
20260830234503 80 83 2.0 9.0 0.00 0.00 0.00 42 990.0
20260830233603 79 84 3.0 10.0 0.00 0.00 0.00 41 990.2
20260830232703 79 84 3.0 11.0 0.00 0.00 0.00 42 990.5
20260830231803 79 92 4.0 10.0 0.00 0.00 0.00 43 990.7
20260830230903 80 81 2.0 8.0 0.00 0.00 0.00 46 990.7
20260830230003 78 85 3.0 11.0 0.00 0.00 0.00 48 990.7
20260830225403 77 79 4.0 11.0 0.00 0.00 0.00 51 990.6
20260830224504 76 78 1.0 5.0 0.00 0.00 0.00 52 990.4
20260830223603 76 80 2.0 7.0 0.00 0.00 0.00 51 990.2
20260830222703 77 82 1.0 7.0 0.00 0.00 0.00 49 989.9
20260830221803 78 75 1.0 4.0 0.00 0.00 0.00 49 990.2
20260830220903 78 77 1.0 4.0 0.00 0.00 0.00 48 990.2
20260830220003 78 72 2.0 7.0 0.00 0.00 0.00 47 990.1
20260830215403 77 71 1.0 3.0 0.00 0.00 0.00 49 990.1
20260830214503 76 72 3.0 7.0 0.00 0.00 0.00 51 990.0
20260830213818 76 75 3.0 7.0 0.00 0.00 0.00 51 990.0
20260830212703 76 88 2.0 8.0 0.00 0.00 0.00 50 989.9
20260830211803 76 87 3.0 11.0 0.00 0.00 0.00 49 990.1